TimeCST,TemperatureF,Dew PointF,Humidity,Sea Level PressureIn,VisibilityMPH,Wind Direction,Wind SpeedMPH,Gust SpeedMPH,PrecipitationIn,Events,Conditions,WindDirDegrees,DateUTC
12:53 AM,37.0,30.9,79,30.35,10.0,Calm,Calm,-,N/A,,Partly Cloudy,0,2012-11-16 06:53:00
1:53 AM,37.0,32.0,82,30.35,10.0,Calm,Calm,-,N/A,,Partly Cloudy,0,2012-11-16 07:53:00
2:53 AM,36.0,30.9,82,30.35,9.0,Calm,Calm,-,N/A,,Clear,0,2012-11-16 08:53:00
3:53 AM,34.0,30.9,89,30.36,10.0,Calm,Calm,-,N/A,,Scattered Clouds,0,2012-11-16 09:53:00
4:53 AM,32.0,30.0,92,30.36,10.0,Calm,Calm,-,N/A,,Partly Cloudy,0,2012-11-16 10:53:00
5:53 AM,34.0,30.9,89,30.38,10.0,Calm,Calm,-,N/A,,Partly Cloudy,0,2012-11-16 11:53:00
6:53 AM,32.0,30.0,92,30.39,10.0,Calm,Calm,-,N/A,,Clear,0,2012-11-16 12:53:00
7:53 AM,39.0,34.0,82,30.42,10.0,Calm,Calm,-,N/A,,Scattered Clouds,0,2012-11-16 13:53:00
8:53 AM,46.0,35.1,66,30.43,10.0,East,3.5,-,N/A,,Clear,80,2012-11-16 14:53:00
9:53 AM,52.0,33.1,49,30.43,10.0,Variable,4.6,-,N/A,,Clear,0,2012-11-16 15:53:00
10:53 AM,55.9,32.0,40,30.44,10.0,Variable,3.5,-,N/A,,Clear,0,2012-11-16 16:53:00
11:53 AM,60.1,30.0,32,30.41,10.0,Variable,6.9,-,N/A,,Clear,0,2012-11-16 17:53:00
12:53 PM,62.1,28.9,29,30.37,10.0,SE,6.9,-,N/A,,Clear,130,2012-11-16 18:53:00
1:53 PM,63.0,28.9,28,30.35,10.0,Variable,4.6,-,N/A,,Clear,0,2012-11-16 19:53:00
2:53 PM,64.0,28.0,26,30.33,10.0,NNE,4.6,-,N/A,,Clear,20,2012-11-16 20:53:00
3:53 PM,63.0,28.0,27,30.33,10.0,East,10.4,-,N/A,,Clear,100,2012-11-16 21:53:00
4:53 PM,60.1,28.9,31,30.34,10.0,East,3.5,-,N/A,,Clear,80,2012-11-16 22:53:00
5:53 PM,54.0,28.9,38,30.35,10.0,Calm,Calm,-,N/A,,Clear,0,2012-11-16 23:53:00
6:53 PM,46.9,30.9,54,30.36,10.0,Calm,Calm,-,N/A,,Clear,0,2012-11-17 00:53:00
7:53 PM,44.1,30.9,60,30.37,10.0,Calm,Calm,-,N/A,,Clear,0,2012-11-17 01:53:00
8:53 PM,39.9,30.0,68,30.37,10.0,Calm,Calm,-,N/A,,Clear,0,2012-11-17 02:53:00
9:53 PM,39.9,30.0,68,30.38,10.0,Calm,Calm,-,N/A,,Clear,0,2012-11-17 03:53:00
10:53 PM,37.0,30.0,76,30.38,10.0,Calm,Calm,-,N/A,,Clear,0,2012-11-17 04:53:00
11:53 PM,34.0,28.9,82,30.37,10.0,Calm,Calm,-,N/A,,Clear,0,2012-11-17 05:53:00